Location: Bergfeld
(52.0500°N, 11.7833°E)
Time: 14:15:19
(UTC+00:00)

Okean O Rocket - Pass Details

Date: 17 February 2020
Orbit: 622 x 645 km, 98.2° (Epoch: 07 April)

Event Time Altitude Azimuth Distance (km) Brightness Sun altitude
Rises 04:54:23 0° 17° (NNE) 2,944 5.2 -14.6°
Reaches altitude 10° 04:56:38 10° 21° (NNE) 2,027 4.4 -14.2°
Maximum altitude 05:00:59 60° 101° (ESE) 725 2.2 -13.5°
Drops below altitude 10° 05:05:18 10° 182° (S) 1,998 4.2 -12.9°
Sets 05:07:30 0° 186° (S) 2,898 5.0 -12.5°
